Regional Weather Roundup
Issued by NWS

Home | Current Version | Previous Version | Graphics & Text | Print | Product List | Glossary On
Versions: 1 2 3 4 5 6 7 8 9 10 11 12 13 14 15 16 17 18 19 20 21 22 23 24 25 26 27
000
ASUS45 KCYS 221410
RWRWY

WYOMING REGIONAL WEATHER ROUNDUP
NATIONAL WEATHER SERVICE CHEYENNE WY
800 AM MDT THU JUN 22 2017

NOTE:  "FAIR" INDICATES FEW OR NO CLOUDS BELOW 12,000 FEET
WITH NO SIGNIFICANT WEATHER AND/OR OBSTRUCTIONS TO VISIBILITY.

WYZ001-221500-
YELLOWSTONE NATIONAL PARK

CITY           SKY/WX    TMP DP  RH WIND       PRES   REMARKS
LK YELLOWSTONE   N/A     45  31  58 SE3       30.22R
W YELLOWSTONE  NOT AVBL

$$
WYZ002>013-054>058-071-098>099-221500-
NORTHERN WYOMING

CITY           SKY/WX    TMP DP  RH WIND       PRES   REMARKS
JACKSON        SUNNY     52  43  71 N3        30.13R
CODY           FAIR      59  36  42 NE7       30.08S
GREYBULL       FAIR      66  33  29 NW18      29.98R
WORLAND        FAIR      64  37  36 W13       30.01R
SHERIDAN       FAIR      61  41  47 N8        30.04S
BUFFALO        FAIR      58  37  45 N21       30.07R
GILLETTE       FAIR      57  40  52 N21G28    30.01R
NEWCASTLE      FAIR      61  41  48 NW16G26   29.93R

$$
WYZ014>020-022>026-101>103-221500-
CENTRAL WYOMING

CITY           SKY/WX    TMP DP  RH WIND       PRES   REMARKS
BIG PINEY      FAIR      57  36  45 VRB3      30.13R
PINEDALE       FAIR      52  41  66 NW8       30.14R
DUBOIS         FAIR      55  34  44 N9        30.12R
LANDER         FAIR      62  31  31 NE12      30.08R
RIVERTON       FAIR      62  27  26 NE15G22   30.05R
CASPER         FAIR      61  33  35 N15G22    30.06R
DOUGLAS        FAIR      64  40  41 NW18G25   30.02R

$$
WYZ021-027>030-104>119-221500-
SOUTHERN WYOMING

CITY           SKY/WX    TMP DP  RH WIND       PRES   REMARKS
EVANSTON       FAIR      58  44  60 W8        30.15R
KEMMERER         N/A     55  34  44 N8        30.16R
FORT BRIDGER   FAIR      64  40  41 W8        30.17R
ROCK SPRINGS   FAIR      62  40  44 W6        30.11R
DIXON          FAIR      62  43  49 S5        30.10S
RAWLINS        FAIR      66  40  38 W13       30.08R
SARATOGA       FAIR      70  37  30 W17       30.09F
LARAMIE        FAIR      68  39  34 W9        30.07R
CHEYENNE       FAIR      72  42  34 NW12      29.99R
TORRINGTON     FAIR      66  51  58 NW17      29.90R
PINE BLUFFS    FAIR      72  41  33 NW20G26   29.94R

$$




USA.gov is the U.S. government's official web portal to all federal, state and local government web resources and services.